EW2919 Weather Reports


time (UTC)temp
C
wind
direction
speed
KPH
gust
KPH
rain 1hr
cm
rain 24hr
cm
rain mn
cm
humidity
%
barometer
mb
20260510190022 30 223 0.0 3.2 0.00 0.00 0.00 26 1015.4
20260510184506 29 76 0.0 8.0 0.00 0.00 0.00 29 1015.5
20260510181513 29 164 1.6 6.4 0.00 0.00 0.00 37 1015.6
20260510180020 28 22 1.6 11.3 0.00 0.00 0.00 32 1015.8
20260510174521 28 63 1.6 4.8 0.00 0.00 0.00 36 1016.1
20260510173007 28 333 1.6 4.8 0.00 0.00 0.00 34 1016.2
20260510171515 28 181 1.6 6.4 0.00 0.00 0.00 31 1016.2
20260510170018 27 292 1.6 4.8 0.00 0.00 0.00 36 1016.3
20260510164523 27 268 1.6 3.2 0.00 0.00 0.00 33 1016.4
20260510163023 27 277 1.6 3.2 0.00 0.00 0.00 33 1016.5
20260510161509 27 53 0.0 4.8 0.00 0.00 0.00 37 1016.7
20260510160021 26 55 1.6 4.8 0.00 0.00 0.00 43 1016.8
20260510154520 26 267 1.6 4.8 0.00 0.00 0.00 42 1016.7
20260510153022 25 325 0.0 6.4 0.00 0.00 0.00 41 1016.8
20260510151526 25 327 0.0 4.8 0.00 0.00 0.00 43 1016.8
20260510150005 25 279 3.2 3.2 0.00 0.00 0.00 49 1016.8
20260510143004 23 56 1.6 6.4 0.00 0.00 0.00 57 1016.9
20260510141505 21 339 1.6 4.8 0.00 0.00 0.00 60 1016.8
20260510140005 20 149 0.0 4.8 0.00 0.00 0.00 69 1016.9
20260510134505 18 309 0.0 4.8 0.00 0.00 0.00 71 1016.7
20260510130013 15 297 1.6 6.4 0.00 0.00 0.00 96 1016.7
20260510124508 15 9 0.0 3.2 0.00 0.00 0.00 96 1016.6
20260510114509 12 138 0.0 3.2 0.00 0.00 0.00 95 1015.5
20260510110015 12 351 0.0 0.0 0.00 0.00 0.00 94 1014.9
20260510103009 12 241 0.0 3.2 0.00 0.00 0.00 94 1014.4
20260510101508 12 343 0.0 3.2 0.00 0.00 0.00 94 1014.2
20260510100007 12 286 0.0 0.0 0.00 0.00 0.00 93 1014.1
20260510094527 12 294 0.0 1.6 0.00 0.00 0.00 94 1013.9
20260510093013 12 294 0.0 0.0 0.00 0.00 0.00 93 1013.9
20260510091512 12 294 0.0 0.0 0.00 0.00 0.00 93 1013.8
20260510090013 13 294 0.0 0.0 0.00 0.00 0.00 93 1013.7
20260510084511 13 294 0.0 0.0 0.00 0.00 0.00 93 1013.5
20260510083008 13 294 0.0 0.0 0.00 0.00 0.00 93 1013.4
20260510081515 13 294 0.0 0.0 0.00 0.00 0.00 93 1013.2
20260510080013 13 294 0.0 0.0 0.00 0.00 0.00 93 1013.1
20260510074525 13 294 0.0 0.0 0.00 0.00 0.00 93 1013.0
20260510073009 14 294 0.0 0.0 0.00 0.00 0.00 93 1013.1
20260510071515 14 294 0.0 0.0 0.00 0.00 0.00 92 1012.9
20260510070028 14 294 0.0 0.0 0.00 0.00 0.00 92 1012.8
20260510064521 15 294 0.0 0.0 0.00 0.00 0.00 92 1012.9
20260510063026 15 294 0.0 1.6 0.00 0.00 0.00 92 1012.9
20260510061512 15 294 0.0 3.2 0.00 0.00 0.00 91 1013.0
20260510060018 15 294 0.0 3.2 0.00 0.00 0.00 91 1012.9
20260510054504 15 294 0.0 0.0 0.00 0.00 0.00 91 1012.8
20260510053033 15 294 0.0 0.0 0.00 0.00 0.00 90 1013.2
20260510051513 15 294 0.0 0.0 0.00 0.00 0.00 89 1013.3
20260510050011 16 294 0.0 3.2 0.00 0.00 0.00 88 1013.2
20260510043005 16 294 0.0 1.6 0.00 0.00 0.00 86 1013.2
20260510041521 16 294 0.0 3.2 0.00 0.00 0.00 85 1013.1
20260510040026 17 303 0.0 3.2 0.00 0.00 0.00 85 1012.9
20260510034511 17 216 0.0 3.2 0.00 0.00 0.00 84 1013.1
20260510033004 17 255 0.0 3.2 0.00 0.00 0.00 84 1013.2
20260510031511 17 279 0.0 3.2 0.00 0.00 0.00 84 1013.1
20260510030013 17 279 0.0 3.2 0.00 0.00 0.00 83 1013.0
20260510024516 17 281 0.0 3.2 0.00 0.00 0.00 83 1013.0
20260510023014 17 196 0.0 3.2 0.00 0.00 0.00 82 1013.0
20260510021520 17 244 0.0 3.2 0.00 0.00 0.00 82 1012.8
20260510020012 17 282 0.0 3.2 0.00 0.00 0.00 81 1012.8
20260510014513 17 282 0.0 3.2 0.00 0.00 0.00 80 1012.7
20260510013022 18 173 0.0 3.2 0.00 0.00 0.00 80 1012.4
20260510011509 18 275 0.0 3.2 0.00 0.00 0.00 78 1012.0
20260510010008 18 147 0.0 3.2 0.00 0.00 0.00 76 1011.8
20260510004514 19 182 0.0 3.2 0.00 0.00 0.00 75 1011.6
20260510003019 20 184 0.0 3.2 0.00 0.00 0.00 74 1011.3
20260510001515 20 105 0.0 3.2 0.00 0.00 0.00 71 1011.3
20260509234512 21 144 0.0 6.4 0.00 0.00 0.00 68 1011.1
20260509233015 21 148 0.0 9.7 0.00 0.00 0.00 68 1010.7
20260509231518 21 271 0.0 4.8 0.00 0.00 0.00 65 1010.6
20260509230008 22 197 0.0 3.2 0.00 0.00 0.00 65 1010.4
20260509224509 22 302 1.6 4.8 0.00 0.00 0.00 62 1010.2
20260509223016 22 103 0.0 6.4 0.00 0.00 0.00 61 1010.3
20260509221515 23 309 1.6 4.8 0.00 0.00 0.00 59 1010.3
20260509220020 23 155 0.0 4.8 0.00 0.00 0.00 58 1010.3
20260509214508 23 266 0.0 6.4 0.00 0.00 0.00 57 1010.3
20260509213024 24 268 3.2 12.9 0.00 0.00 0.00 57 1010.2
20260509211515 24 250 1.6 9.7 0.00 0.00 0.00 57 1010.2
20260509210017 23 275 1.6 11.3 0.00 0.00 0.00 60 1010.1
20260509204518 23 123 1.6 14.5 0.00 0.00 0.00 59 1010.1
20260509203013 24 216 1.6 14.5 0.00 0.00 0.00 58 1010.3
20260509201515 24 180 1.6 9.7 0.00 0.00 0.00 59 1010.4
20260509200018 23 226 3.2 14.5 0.00 0.00 0.00 58 1010.4
20260509194520 23 266 1.6 9.7 0.00 0.00 0.00 61 1010.4
20260509193027 22 284 1.6 11.3 0.00 0.00 0.00 64 1010.8
20260509191513 23 264 1.6 12.9 0.00 0.00 0.00 60 1010.8